Probability
0 1 4 8 9 8 8 6 4 4 6 6 6 4 2 3 4 5 5 3 1 0 0 0 0 0 0 0 0 0 0 0 0 0 0 0 0 0 0 0 0 0 0
0 2 6 10 12 11 10 7 5 4 5 6 5 3 1 1 2 3 3 2 1 0 0 0 0 0 0 0 0 0 0 0 0 0 0 0 0 0 0 0 0 0 0
1 3 7 11 14 14 13 10 6 4 4 4 3 2 0 0 0 1 2 1 0 0 0 0 0 0 0 0 0 0 0 0 0 0 0 0 0 0 0 0 0 0 0
3 4 7 11 14 16 15 12 8 5 3 3 3 2 1 0 0 0 0 0 0 0 0 0 0 0 0 0 0 0 0 0 0 0 0 0 0 0 0 0 0 0 0
6 7 8 11 15 17 16 13 10 7 4 3 3 3 1 0 0 0 0 0 0 0 0 0 0 0 0 0 0 0 0 0 0 0 0 0 0 0 0 0 0 0 0
8 7 8 12 16 17 16 14 12 9 7 4 3 3 2 1 0 0 0 0 0 0 1 1 0 0 0 0 0 0 0 0 0 0 0 0 0 0 0 0 0 0 0
6 6 8 11 14 15 16 15 14 12 9 6 4 3 3 2 1 0 0 0 0 1 2 2 1 0 0 0 0 0 0 0 0 0 0 0 0 0 0 0 0 0 0
4 5 7 9 10 12 15 15 15 13 11 9 6 4 3 3 1 0 0 0 0 1 2 2 1 0 0 0 0 0 0 0 0 0 0 0 0 0 0 0 0 0 0
2 3 5 7 8 10 12 14 13 12 11 9 7 5 4 3 2 1 0 0 0 1 2 2 1 0 0 0 0 0 0 0 0 0 0 0 0 0 0 0 0 0 0
0 2 4 6 7 8 9 10 10 9 8 7 5 4 3 3 2 1 0 0 0 1 1 1 0 0 0 0 0 0 0 0 0 0 0 0 0 0 0 0 0 0 0
0 1 3 5 6 6 7 7 7 7 6 6 4 3 3 3 1 0 0 0 0 0 0 0 0 0 0 0 0 0 0 0 0 0 0 0 0 0 0 0 0 0 0
0 1 3 4 4 5 6 6 6 6 6 6 5 4 3 2 1 0 0 0 0 0 0 0 0 0 0 0 0 0 0 0 0 0 0 0 0 0 0 0 0 0 0
1 2 3 3 3 4 4 5 6 6 6 6 6 5 4 3 1 0 0 0 0 0 0 0 0 0 0 0 0 0 0 0 0 0 0 0 0 0 0 0 0 0 0
2 2 2 3 3 3 3 4 4 5 6 6 6 5 5 4 1 0 0 0 0 0 0 0 0 0 0 0 0 0 0 0 0 0 0 0 0 0 0 0 0 0 0
2 1 1 2 3 3 3 3 3 4 5 6 6 5 5 5 3 1 0 0 0 0 0 0 0 0 0 0 0 0 0 0 0 0 0 0 0 0 0 0 0 0 0
2 1 0 1 3 3 3 3 3 3 4 5 6 5 5 5 4 2 0 0 0 0 0 0 0 0 0 0 0 0 0 0 0 0 0 0 0 0 0 0 0 0 0
2 2 1 1 2 3 3 3 3 3 3 4 5 6 4 3 3 2 1 0 0 0 0 0 0 0 0 0 0 0 0 0 0 0 0 0 0 0 0 0 0 0 0
2 2 1 0 1 3 3 3 3 3 3 3 4 5 4 2 1 2 2 1 0 0 0 0 0 0 0 0 0 0 0 0 0 0 0 0 0 0 0 0 0 0 0
1 2 1 1 1 3 3 3 3 3 3 3 3 4 4 3 1 1 2 1 0 0 0 0 0 0 0 0 0 0 0 0 0 0 0 0 0 0 0 0 0 0 0
1 1 1 1 2 3 3 3 3 3 3 4 3 4 4 3 2 2 2 1 0 0 0 0 0 0 0 0 0 0 0 0 0 0 0 0 0 0 0 0 0 0 0
0 0 0 1 3 3 3 3 3 3 4 4 4 4 4 4 3 2 2 1 0 0 0 0 0 0 0 0 0 0 0 0 0 0 0 0 0 0 0 0 0 0 0
0 0 0 1 2 3 3 3 3 3 3 4 3 3 4 3 3 3 2 1 0 0 0 0 0 0 0 0 0 0 0 0 0 0 0 0 0 0 0 0 0 0 0
0 0 0 0 1 3 3 3 3 3 3 3 3 3 3 3 3 3 3 2 1 1 0 0 0 0 0 0 0 0 0 0 0 0 0 0 0 0 0 0 0 0 0
0 0 0 0 1 2 3 3 3 3 3 3 3 3 3 3 3 3 3 3 3 2 1 0 0 0 0 0 0 0 0 0 0 0 0 0 0 0 0 0 0 0 0
0 0 0 0 0 1 3 3 3 3 3 3 3 3 3 3 3 3 3 3 3 2 1 0 0 0 0 0 0 0 0 0 0 0 0 0 0 0 0 0 0 0 0
0 0 0 0 0 1 2 3 3 3 3 3 3 3 3 3 3 3 3 3 3 2 1 0 0 0 0 0 0 0 0 0 0 0 0 0 0 0 0 0 0 0 0
Wind_Speed
1 2 2 4 6 8 9 9 9 9 10 10 10 10 11 11 11 10 11 11 10 10 11 11 11 11 12 12 12 12 13 13 13 13 13 13 13 13 13 12 11 7 13
3 3 3 4 6 7 9 9 9 9 9 10 10 10 10 10 10 10 10 10 10 10 10 10 11 11 11 11 11 12 12 13 13 12 12 11 11 11 11 11 11 7 12
4 3 3 4 6 7 8 9 8 8 9 9 9 9 9 9 10 10 9 9 9 9 9 9 10 10 10 10 11 11 12 12 12 11 10 6 6 11 11 11 11 11 11
4 3 3 4 6 7 8 8 8 8 8 8 8 9 9 9 9 9 9 9 8 8 9 9 10 10 9 10 10 11 11 11 11 10 6 4 4 10 11 11 10 11 11
4 3 3 4 6 7 8 8 8 8 8 8 8 8 8 8 9 9 9 9 8 8 9 9 9 9 9 9 10 10 10 10 10 8 5 4 4 9 10 11 10 9 9
4 3 3 5 6 7 7 8 8 8 8 8 8 8 8 8 8 8 8 8 8 8 8 8 9 9 8 9 9 10 10 10 8 5 5 4 3 8 10 10 10 9 9
4 3 3 5 5 6 7 7 7 8 8 8 7 7 7 7 7 7 8 8 8 8 8 8 8 8 7 8 8 9 9 9 6 5 4 3 4 8 9 9 9 9 9
5 3 3 4 5 5 6 6 7 7 7 8 7 7 7 6 7 7 7 7 7 7 7 7 7 7 7 7 8 8 8 8 6 5 4 3 5 7 8 9 8 8 8
4 3 2 2 3 4 5 5 6 6 7 7 7 7 7 6 6 7 7 6 6 7 7 7 6 6 6 7 7 7 7 8 5 3 3 2 4 7 7 8 8 8 8
3 3 2 2 2 2 2 4 5 5 6 6 6 6 6 6 6 6 6 6 6 6 6 6 6 6 5 6 6 6 7 6 4 3 2 2 4 5 6 7 7 7 7
2 2 2 2 1 1 2 3 3 4 4 5 5 5 5 3 3 3 4 6 6 5 6 6 6 6 6 6 6 6 5 2 3 2 2 3 4 5 5 5 5 6 6
2 1 1 1 1 1 1 2 1 1 2 2 2 3 2 2 2 3 4 5 5 5 4 5 6 6 5 2 4 5 2 2 2 2 2 4 3 4 4 5 5 5 5
3 2 1 1 1 1 1 1 1 1 1 2 2 2 2 2 2 2 2 2 2 3 2 3 3 2 2 2 2 2 2 2 1 1 2 3 3 4 4 4 4 5 5
2 2 2 2 1 1 1 1 1 1 1 1 1 2 2 2 1 1 1 1 1 1 1 2 1 2 2 2 2 2 2 1 1 1 1 3 3 3 4 4 4 4 4
2 2 2 2 2 2 2 1 1 1 1 1 1 1 3 2 2 1 1 1 1 1 1 1 1 2 2 2 2 2 2 1 1 1 1 3 3 3 4 4 3 3 3
3 2 2 2 2 3 2 2 1 1 1 1 1 1 2 2 2 2 1 1 1 1 1 1 1 1 1 1 1 1 1 1 1 1 1 2 3 3 3 4 4 3 3
3 3 2 3 2 3 2 2 1 1 1 1 1 1 2 2 2 2 2 1 0 1 1 1 1 1 1 1 1 1 1 1 1 1 1 1 1 3 4 4 4 4 3
3 3 3 2 3 3 2 2 1 1 1 1 0 1 2 2 2 2 2 1 0 1 1 1 1 1 1 1 1 1 1 1 0 1 1 1 1 1 2 4 4 5 4
4 4 3 2 3 3 2 2 1 1 1 1 1 1 1 2 2 2 2 1 1 2 1 1 1 1 1 1 1 1 1 1 1 0 1 1 1 1 1 3 4 5 5
3 4 3 3 3 3 2 1 1 1 1 1 1 1 1 2 2 2 2 2 2 2 1 1 1 1 1 0 1 1 1 1 1 0 0 1 1 1 1 2 2 3 5
2 3 3 3 3 3 2 2 1 1 1 0 1 1 1 2 2 2 2 2 2 2 2 1 1 1 1 1 1 1 2 1 0 0 0 0 1 1 1 1 1 1 2
3 2 3 3 4 3 3 2 2 1 1 0 0 0 1 2 2 3 2 2 3 2 2 2 2 1 1 1 1 1 2 2 2 1 1 0 1 1 2 2 2 1 1
2 3 2 3 3 3 3 2 2 1 1 0 0 0 1 2 2 2 3 2 3 3 3 3 3 2 2 0 1 2 1 1 2 2 1 1 1 1 2 2 2 2 1
3 2 2 2 2 3 3 4 4 3 2 2 1 1 1 0 2 2 3 2 3 3 3 3 3 2 3 2 0 0 1 1 1 2 2 1 2 2 3 2 2 2 2
1 1 1 1 1 2 3 4 4 3 2 1 1 1 1 1 1 1 3 3 3 3 3 3 3 3 3 3 2 1 0 0 0 1 3 3 3 2 2 3 2 2 2
1 1 1 1 0 1 3 3 3 4 3 2 2 2 1 1 1 1 1 3 3 3 4 4 4 4 3 3 2 2 2 2 1 1 3 3 3 3 3 2 2 2 2
Wind_Direction
199 200 179 138 130 119 110 103 99 96 95 93 89 85 85 83 82 87 85 80 79 79 77 74 72 70 69 69 73 74 72 68 66 66 67 68 69 69 68 64 60 59 64
170 179 156 131 128 118 111 107 104 99 95 95 93 88 86 85 84 85 83 80 79 79 78 74 73 73 71 69 73 75 71 69 66 62 60 61 64 66 67 64 64 65 66
141 156 147 132 124 115 111 109 106 103 98 96 97 93 90 89 89 86 82 80 79 77 75 75 76 76 73 71 75 75 73 70 67 62 56 46 56 63 65 66 66 66 67
137 139 143 130 124 116 114 112 109 106 101 97 98 97 94 93 91 89 84 79 78 78 78 78 79 77 76 74 76 76 73 71 68 61 53 43 47 63 64 63 65 65 66
120 130 138 122 123 120 119 116 112 108 105 99 97 99 95 95 94 90 86 80 77 78 80 81 81 79 77 75 77 77 72 72 67 59 53 44 41 62 64 61 62 64 64
108 116 135 120 121 123 123 120 116 112 109 103 97 99 95 91 91 90 87 83 79 78 81 85 85 82 77 75 77 79 74 71 64 57 52 42 39 64 67 65 62 60 61
106 97 124 119 118 122 123 122 117 114 110 103 98 97 97 92 88 87 85 83 80 80 80 82 88 85 77 73 75 78 73 68 66 58 51 42 45 63 67 66 65 63 61
117 103 105 115 113 118 120 120 117 114 108 101 98 94 95 92 88 87 84 82 80 80 80 81 85 86 79 75 73 72 67 64 67 59 46 46 54 65 66 65 65 63 61
107 104 97 104 112 116 116 116 115 111 106 100 95 88 83 82 82 77 76 77 79 80 78 77 77 84 83 76 72 70 65 58 66 54 46 44 57 67 66 63 61 61 60
95 102 108 98 94 109 120 116 113 111 106 101 95 87 81 77 74 71 65 62 69 77 78 73 69 69 77 76 68 67 63 59 64 51 39 37 53 67 67 63 59 59 59
90 90 97 96 88 98 115 115 121 120 110 104 100 94 90 84 76 67 65 64 60 67 76 73 68 64 63 64 60 60 60 62 60 48 40 37 51 63 66 64 61 59 56
143 128 98 104 100 105 119 111 118 114 104 98 95 100 99 90 79 73 66 62 55 52 67 70 65 65 60 52 52 58 64 66 60 41 40 39 52 61 63 62 62 57 53
167 150 138 133 127 106 91 112 105 100 99 97 99 96 93 87 77 69 65 54 49 52 58 62 56 52 57 55 58 62 65 65 59 30 31 35 46 56 58 59 59 54 50
154 164 159 153 142 125 96 104 115 110 115 110 121 117 112 104 88 86 77 55 50 52 51 60 51 39 47 60 73 71 67 66 60 34 29 31 32 43 49 49 50 49 46
162 176 169 155 149 144 126 111 101 128 134 139 120 124 127 132 136 131 104 65 45 57 71 67 60 52 48 50 61 73 68 68 66 47 21 19 22 34 37 33 32 32 33
183 187 180 170 157 142 138 139 143 132 131 131 137 141 140 141 146 146 128 105 71 64 92 107 79 70 52 48 50 62 65 69 78 66 40 20 18 15 22 22 17 18 22
189 177 179 176 159 150 147 147 144 142 116 135 152 147 137 137 146 148 145 136 127 102 82 76 63 66 56 42 34 13 34 54 79 62 37 25 10 8 8 12 10 5 3
179 174 179 170 168 167 157 158 154 151 148 160 172 159 150 139 141 148 141 142 119 106 99 95 84 77 52 33 0 340 347 7 34 29 28 30 28 4 352 358 359 355 349
182 178 179 174 176 178 169 157 154 151 154 161 161 170 163 147 151 156 147 145 130 112 96 103 95 118 90 14 334 329 325 313 312 360 26 20 23 14 341 342 348 345 343
179 174 176 181 177 166 152 128 112 111 140 162 173 192 158 153 150 154 148 139 132 123 108 98 110 82 109 9 346 342 322 307 302 274 283 346 359 6 351 340 334 327 330
163 164 176 179 175 157 155 165 170 191 203 204 195 186 165 152 149 147 152 146 140 142 149 139 121 111 70 45 58 9 348 329 291 356 353 358 360 345 338 333 328 322 317
171 174 177 181 180 175 174 177 178 176 186 215 295 226 183 165 161 148 154 164 160 152 141 138 130 130 120 67 98 95 356 338 340 325 320 228 297 325 325 322 318 310 313
188 187 188 191 183 181 164 133 110 84 64 48 267 271 294 185 165 154 156 168 168 163 167 169 161 142 166 138 94 126 144 246 312 312 294 301 321 313 302 302 303 301 300
210 198 187 181 177 174 161 157 158 170 194 215 210 223 267 224 176 169 159 172 175 175 175 179 172 166 164 175 184 15 148 160 184 303 307 311 311 296 297 308 304 297 298
173 165 182 167 167 172 167 166 170 178 196 191 178 199 224 257 207 185 175 174 182 183 184 181 175 173 173 180 183 180 145 32 166 226 280 302 319 296 296 288 281 282 291
114 112 127 134 171 185 173 171 175 182 182 176 193 205 216 242 244 231 209 188 187 189 191 190 184 183 183 179 188 182 180 187 205 221 250 269 292 298 301 282 275 280 288